Weather Roundup
Issued by NWS

Home | Current Version | Previous Version | Graphics & Text | Print | Product List | Glossary Off
Versions: 1 2 3 4 5 6 7 8 9 10 11 12 13 14 15 16 17 18 19 20 21 22 23 24 25 26 27 28 29 30 31 32 33 34 35 36 37 38 39 40 41 42 43 44 45 46 47 48 49 50

000
NZUS93 KARX 011659
HRRWXR

CURRENT HOURLY OBSERVATIONS ACROSS
MUCH OF THE UPPER MISSISSIPPI VALLEY
NATIONAL WEATHER SERVICE LA CROSSE WI
1200 PM CDT WED JUL 01 2015


...SOUTHEAST MINNESOTA...


CITY           SKY/WX    TMP DP  RH WIND       PRES   REMARKS
ROCHESTER      CLOUDY    63  52  67 E6        30.02S
ROCHESTER/MAYO FAIR      62  44  52 E9        30.02S
WINONA         CLOUDY    63  50  63 CALM      30.02S
AUSTIN         CLOUDY    64  52  63 E5        30.00S
ALBERT LEA     CLOUDY    64  54  68 E8        30.00S
DODGE CENTER   LGT RAIN  63  54  72 CALM      30.02R
PRESTON        PTSUNNY   62  49  62 E7        30.01F
OWATONNA       CLOUDY    63  52  67 E7        30.01S
FARIBAULT      LGT RAIN  63  54  72 NE6       30.02S
$$

...ELSEWHERE IN MINNESOTA...


CITY           SKY/WX    TMP DP  RH WIND       PRES   REMARKS
MINNEAPOLIS    CLOUDY    61  49  64 SE5       30.02S
INTNL FALLS    SUNNY     73  50  44 VRB5      29.97F
DULUTH         MOSUNNY   68  51  54 SW8       30.02S
RED WING       CLOUDY    63  52  67 E3        30.01S
REDWOOD FALLS  CLOUDY    62  57  83 E6        29.99S
MANKATO        CLOUDY    63  54  72 E5        30.01R
WORTHINGTON    CLOUDY    63  55  77 E13       29.98S
FAIRMONT       CLOUDY    64  54  68 E8        29.99R
$$

...SOUTHWEST WISCONSIN...


CITY           SKY/WX    TMP DP  RH WIND       PRES   REMARKS
LA CROSSE      CLOUDY    65  48  54 SE6       30.01S
PRAIRIE DU CHI MOSUNNY   66  48  52 N6        29.99S
BOSCOBEL       MOSUNNY   68  49  50 VRB7      30.00F
LONE ROCK      NOT AVBL
PLATTEVILLE    PTSUNNY   65  57  75 NE7       29.99S
FORT MC COY    PTSUNNY   65  44  45 NE5       30.03R
VIROQUA        FAIR      64  46  52 NE6       30.02S
WIS DELLS      MOSUNNY   64  45  48 N6        30.02R
$$

...ELSEWHERE IN WISCONSIN...


CITY           SKY/WX    TMP DP  RH WIND       PRES   REMARKS
MILWAUKEE      MOSUNNY   62  50  64 E12       29.98S
MADISON        PTSUNNY   67  47  48 NW6       29.99R
GREEN BAY      CLOUDY    61  50  67 VRB5      30.01R
EAU CLAIRE     PTSUNNY   65  44  46 VRB3      30.02S
BLACK RVR FLS  FAIR      68  45  44 N6        30.01F
MEDFORD        PTSUNNY   62  44  52 NE7       30.03R
WAUSAU         PTSUNNY   66  44  45 VRB7      30.00S
WIS RAPIDS     PTSUNNY   67  41  38 N12       30.02R
MARSHFIELD     PTSUNNY   64  45  49 N8        30.02R
RICE LAKE      MOSUNNY   65  45  49 NE3       30.05R
$$

...NORTHEAST IOWA...


CITY           SKY/WX    TMP DP  RH WIND       PRES   REMARKS
DECORAH          N/A    N/A N/A N/A MISG        N/A
MASON CITY     CLOUDY    65  57  75 E9        30.00S
CHARLES CITY   CLOUDY    66  57  72 E9        30.00S
OELWEIN          N/A     64  57  77 NE10      29.99S
$$

...ELSEWHERE IN IOWA...


CITY           SKY/WX    TMP DP  RH WIND       PRES   REMARKS
DES MOINES     LGT RAIN  71  63  75 SE6       29.90F
IOWA CITY      MOSUNNY   70  62  76 E8        29.96S
FORT DODGE     PTSUNNY   72  59  64 E14       29.94S
$$

...NORTHERN ILLINOIS...


CITY           SKY/WX    TMP DP  RH WIND       PRES   REMARKS
CHICAGO-OHARE  PTSUNNY   68  55  63 N8        29.97S
CHICAGO-MIDWAY PTSUNNY   67  54  63 NE8       29.97S
MOLINE         CLOUDY    68  60  75 E10       29.95F
ROCKFORD       CLOUDY    68  56  65 VRB7      29.99S
PEORIA         PTSUNNY   74  64  71 VRB6      29.94S
$$

NOTE: "FAIR" INDICATES FEW OR NO CLOUDS BELOW 12,000 FEET WITH NO
SIGNIFICANT WEATHER AND/OR OBSTRUCTIONS TO VISIBILITY. WIND
SPEEDS ARE IN MILES-PER-HOUR.



USA.gov is the U.S. government's official web portal to all federal, state and local government web resources and services.